User: anonymous   Login
Location: Unspecified
(0.0000°N, 0.0000°E)
Time: 02:59:35
(UTC+00:00)
Language:

Ayame - Orbit

View from above orbital plane
View from above orbital plane
View from above satellite
View from above satellite

Ground track
Ground track

The orbit data is extracted from the following two-line orbital elements,

1 11261U 79009A   18171.38028919 -.00000131  00000-0  00000+0 0  9999
2 11261   8.5243 102.7175 3683337 168.6376  32.1876  1.68578915126936
Epoch (UTC): 20 June 2018 09:07:36
Eccentricity: 0.3683337
inclination: 8.5243°
perigee height: 12459 km
apogee height: 34427 km
right ascension of ascending node: 102.7175°
argument of perigee: 168.6376°
revolutions per day: 1.68578915
mean anomaly at epoch: 32.1876°
orbit number at epoch: 12693

The dashed part of the orbit path shows where the satellite is in the earth's shadow,  

DLR